Location: Asheville, NC
(35.6000°N, 82.5500°W)
Time: 02:26:32

HO-68 - Pass Details

Date: 15 March 2018
Orbit: 1193 x 1204 km, 100.1° (Epoch: 16 March)

Event Time Altitude Azimuth Distance (km) Brightness Sun altitude
Rises 21:26:43 0° 219° (SW) 4,078 ? -22.7°
Reaches altitude 10° 21:31:31 10° 249° (WSW) 3,122 ? -23.7°
Maximum altitude 21:34:04 12° 270° (W) 2,970 ? -24.2°
Drops below altitude 10° 21:36:37 10° 291° (WNW) 3,131 ? -24.7°
Sets 21:41:30 0° 321° (NW) 4,104 ? -25.6°
